Welcome to mirrors.dotsrc.org

All our mirrors of open source software are available via http, https, ftp and an onion service. More information about our mirrors including statistics and contact information is available on our mirror info pages.

For information about dotsrc.org and our other services please go to our website.

Index of /mirrors/raspbian/raspbian/pool/main/w/

File Name  ↓ File Size  ↓ Date  ↓ 
Parent directory/--
wmmail/-2017-04-13 14:34:09
wpasupplicant/-2017-04-13 14:34:14
wrr/-2017-04-13 14:53:59
webserver-package/-2017-04-13 14:54:14
wine-gecko-1.1.0/-2017-04-13 15:10:09
wsil4j/-2017-04-13 15:10:26
w3c-dtd-xhtml/-2017-04-13 15:24:29
wayv/-2017-04-13 15:24:36
wherpygo/-2017-04-13 15:25:08
whatsnewfm/-2017-04-13 15:25:08
wesnoth-1.8/-2017-04-13 15:25:08
wget-el/-2017-04-13 15:25:08
wikkid/-2017-04-13 15:25:16
wims-extra/-2017-04-13 15:25:16
wine-doc/-2017-04-13 15:25:19
wmctrl/-2017-04-13 15:25:23
wmaloader/-2017-04-13 15:25:23
wwwstat/-2017-04-13 15:25:27
wyg/-2017-04-13 15:25:28
wax.js/-2017-04-13 17:34:09
wine-gecko-2.24/-2017-04-13 17:38:57
withsqlite/-2017-04-13 17:45:24
web2ldap/-2017-04-13 17:51:23
willie/-2017-04-13 19:50:56
webkitgtk-sharp3/-2017-04-13 20:30:28
webkit2-sharp/-2017-10-16 10:08:08
webgen0.5/-2019-05-14 21:30:57
writetype/-2019-05-14 21:31:19
w9wm/-2019-05-14 21:31:20
wv2/-2019-05-14 21:31:20
winwrangler/-2019-05-14 21:31:22
webkit/-2019-05-14 21:31:22
webkitkde/-2019-05-14 21:31:22
wxgeometrie/-2019-05-14 21:31:33
webhelpers/-2019-12-03 05:33:01
watson/-2020-01-12 09:12:11
wc-mode/-2020-01-25 05:45:09
webkit-image/-2020-02-01 23:41:21
websocket-api/-2020-05-09 17:36:51
wala/-2020-06-04 23:43:03
windows-el/-2020-07-27 05:22:12
wig/-2020-09-14 05:54:34
wyhash/-2020-10-26 11:50:46
web-mode/-2020-11-08 05:54:06
weechat-el/-2020-11-21 06:31:19
webjars-locator-core/-2021-01-03 06:11:34
webjars-locator/-2021-01-03 06:11:34
w3-dtd-mathml/-2021-01-08 06:04:48
wildfly-client-config/-2021-01-08 06:04:48
wiliki/-2021-01-09 11:56:33
watchtower-clojure/-2021-01-10 06:29:14
webmagick/-2021-01-10 06:29:14
webcomponentsjs-custom-element-v0.js/-2021-01-13 06:02:47
webapps-metainfo/-2021-01-13 06:02:47
websocketd/-2021-02-04 05:54:28
werken.xpath/-2021-02-08 06:29:04
wuzz/-2021-02-08 23:54:33
wham-align/-2021-03-01 11:44:08
wuzzah/-2021-03-02 11:52:02
wireguard-linux-compat/-2021-08-21 08:02:56
wmii/-2021-08-21 08:03:48
wims-moodle/-2021-08-21 08:04:40
watchdog/-2021-08-21 08:04:48
wot/-2021-08-21 08:04:49
wesnoth-1.11/-2021-08-21 08:05:01
winpdb/-2021-08-21 08:05:01
wininfo/-2021-08-21 08:05:01
wpp/-2021-08-21 08:05:02
wine-gecko-2.21/-2021-08-21 08:05:05
webissues-server/-2021-08-21 08:05:17
webfs/-2021-08-21 08:05:17
wmii-doc/-2021-08-21 08:05:24
widemargin/-2021-08-21 08:05:26
wdg-html-validator/-2021-08-21 08:05:34
woof/-2021-08-21 08:05:37
wfrog/-2021-08-21 08:05:37
whiteboard/-2021-08-21 08:05:37
wm-icons/-2021-08-21 08:05:37
weathermap4rrd/-2021-08-21 08:05:37
webrtc-audio-processing/-2021-08-21 08:05:37
webkit-sharp/-2021-08-21 08:05:37
wims-help/-2021-08-21 08:05:37
windowlab/-2021-08-21 08:05:50
websvn/-2021-08-21 08:05:57
wsdl4j/-2021-08-21 08:05:58
wmf/-2021-08-21 08:05:58
whohas/-2021-08-21 08:05:58
webcolors/-2021-08-21 08:05:58
web2py/-2021-08-21 08:06:07
wordpress-openid/-2021-08-21 08:06:08
wmbatppc/-2021-08-21 08:06:08
wordpress-xrds-simple/-2021-08-21 08:06:14
woff-tools/-2021-08-21 08:06:14
wikipediafs/-2021-08-21 08:06:14
wsdl2c/-2021-08-21 08:06:16
webkit2pdf/-2021-08-21 08:06:22
wwl/-2021-08-21 08:06:22
wims-modules-es/-2021-08-21 08:06:22
wmfsm/-2021-09-01 00:35:51
wmload/-2021-09-01 00:35:51
wmclock/-2021-09-01 00:35:51
wmdiskmon/-2021-09-01 00:35:51
wmsystemtray/-2021-09-01 12:06:43
wmcdplay/-2021-09-02 19:34:55
wmsun/-2021-09-05 11:58:02
wmitime/-2021-09-05 11:58:02
wmmemload/-2021-09-05 11:58:02
wmtop/-2021-09-06 12:01:13
wmlongrun/-2021-09-10 12:20:52
weupnp/-2021-09-20 06:10:59
wmmisc/-2021-09-28 12:06:58
wireguard/-2021-10-03 12:18:51
wmshutdown/-2021-10-11 12:31:04
wmwave/-2021-10-11 18:35:47
wmifinfo/-2021-10-15 12:10:02
wmcliphist/-2021-10-15 12:10:02
wmacpi/-2021-10-27 03:26:13
wmtv/-2021-10-27 03:26:13
wmclockmon/-2021-10-30 12:15:55
wmcube/-2021-10-30 12:15:55
wmcore/-2021-10-30 12:15:55
wmxres/-2021-10-31 12:16:00
wmbubble/-2021-10-31 12:16:00
wmail/-2021-11-05 13:50:55
wmcalclock/-2021-12-09 17:10:20
wrapsrv/-2022-01-08 11:13:13
wordpress-plugin-http-authentication/-2022-03-01 05:10:47
wwwconfig-common/-2022-04-03 04:59:35
whereami/-2022-04-13 05:00:52
wmnet/-2022-04-23 11:48:09
writegood-mode/-2022-05-18 05:11:57
wchartype/-2022-06-10 05:26:34
wikitrans/-2022-06-10 05:26:34
wmppp.app/-2022-06-12 17:07:57
webdeploy/-2022-06-19 05:05:55
woff2/-2022-06-19 17:03:42
wafw00f/-2022-07-27 05:05:18
writeroom-mode/-2022-08-09 05:04:33
wtforms-test/-2022-08-13 05:07:26
wyrd/-2022-08-24 11:00:55
weex/-2022-09-02 16:59:54
wavtool-pl/-2022-10-09 17:12:12
with-simulated-input-el/-2022-10-11 05:07:49
wmtime/-2022-10-11 17:05:55
wsdd/-2022-10-20 05:06:20
wsgiproxy2/-2022-10-22 05:05:38
wcag-contrast-ratio/-2022-10-24 05:08:20
wesnoth-1.14/-2022-11-13 23:14:39
wiki2beamer/-2022-11-20 05:04:40
wayout/-2022-11-23 11:08:48
wbox/-2022-11-23 11:08:50
wtforms-json/-2022-12-05 01:13:53
wob/-2022-12-05 01:13:53
wtforms-components/-2022-12-23 23:23:24
wxedid/-2023-01-04 11:19:01
whitakers-words/-2023-01-05 23:18:27
whiff/-2023-01-07 05:04:52
wtype/-2023-01-16 11:05:18
wurlitzer/-2023-01-20 05:07:52
weevely/-2023-01-21 05:13:13
wmaker-data/-2023-01-27 05:08:20
watchman/-2023-01-31 17:05:07
wcc/-2023-02-24 05:19:43
wp2x/-2023-02-24 17:02:36
weather-util/-2023-03-01 05:07:41
wimsapi/-2023-03-04 05:05:43
wsgicors/-2023-03-07 05:04:36
wsdd2/-2023-05-04 10:55:05
wpebackend-fdo/-2023-05-20 17:05:20
wmcpu/-2023-09-09 12:35:27
weresync/-2023-09-09 12:55:19
whatthepatch/-2023-09-09 12:55:39
what-is-python/-2023-09-09 12:55:39
wxutils/-2023-09-09 12:55:44
woo/-2023-09-09 13:01:26
webalizer/-2023-09-09 13:01:53
wmforkplop/-2023-09-09 13:02:04
wah-plugins/-2023-09-09 13:02:29
wkhtmltopdf/-2023-09-09 13:02:51
wotsap/-2023-09-09 13:03:13
wokkel/-2023-09-09 13:03:17
wzip/-2023-09-09 13:03:24
witalian/-2023-09-09 13:03:33
wapiti/-2023-09-09 13:03:33
w3m-el/-2023-09-09 13:03:34
wmmixer/-2023-09-09 13:03:37
wmtemp/-2023-09-09 13:03:51
wmforecast/-2023-09-09 13:03:51
wordwarvi/-2023-09-09 13:03:51
wmix/-2023-09-09 13:03:52
waagent/-2023-09-09 13:03:52
wammu/-2023-09-09 13:03:53
west-chamber/-2023-09-09 13:03:56
wipe/-2023-09-09 13:03:56
wxpython3.0/-2023-09-09 13:04:05
wmfrog/-2023-09-09 13:04:08
websocketpp/-2023-09-09 13:04:09
wordplay/-2023-09-09 13:04:09
wpan-tools/-2023-09-09 13:04:19
wine-development/-2023-09-09 13:04:20
websploit/-2023-09-09 13:04:20
wss4j/-2023-09-09 13:04:22
wmmon/-2023-09-09 13:04:22
webauth/-2023-09-09 13:04:22
wagon/-2023-09-09 13:04:23
wmauda/-2023-09-09 13:04:23
warmux/-2023-09-09 13:04:23
wiredtiger/-2023-09-09 13:04:33
wagon2/-2023-09-09 13:04:34
winrmcp/-2023-09-09 13:04:35
wmbattery/-2023-09-09 13:04:35
webdeveloper/-2023-09-09 13:04:36
wfrench/-2023-09-09 13:04:36
weirdx/-2023-09-09 13:04:37
wbar/-2023-09-09 13:04:37
webissues/-2023-09-09 13:04:48
wait-for-it/-2023-09-09 13:04:49
wifi-radar/-2023-09-09 13:04:49
whatmaps/-2023-09-09 13:04:50
wordpress-shibboleth/-2023-09-09 13:04:50
whichman/-2023-09-09 13:04:51
w3m/-2023-09-09 13:04:51
wxglade/-2023-09-09 13:04:51
w3c-linkchecker/-2023-09-09 13:04:51
w-scan/-2023-09-09 13:04:53
wifite/-2023-09-09 13:05:00
whatweb/-2023-09-09 13:05:01
wildmidi/-2023-09-09 13:05:01
webdruid/-2023-09-09 13:05:01
wfmath/-2023-09-09 13:05:02
wl-beta/-2023-09-09 13:05:02
w2do/-2023-09-09 13:05:02
webpy/-2023-09-09 13:05:02
wspanish/-2023-09-09 13:05:03
wikipedia2text/-2023-09-09 13:05:04
webcamd/-2023-09-09 13:05:14
wml/-2023-09-09 13:05:15
webcheck/-2023-09-09 13:05:15
wl/-2023-09-09 13:05:15
wakeonlan/-2023-09-09 13:05:16
wmcpuload/-2023-09-09 13:05:16
wit/-2023-09-09 13:05:16
wesnoth-1.10/-2023-09-09 13:05:16
wmbutton/-2023-09-09 13:05:16
w3c-sgml-lib/-2023-09-09 13:05:17
wmmoonclock/-2023-09-09 13:05:17
wxastrocapture/-2023-09-09 13:05:17
wordgrinder/-2023-09-09 13:05:18
wine/-2023-09-09 13:05:18
webcit/-2023-09-09 13:05:24
whyteboard/-2023-09-09 13:05:24
wrk/-2023-09-09 13:05:26
w1retap/-2023-09-09 13:05:26
win32-loader/-2023-09-09 13:05:26
wmressel/-2023-09-09 13:05:26
wmbiff/-2023-09-09 13:05:26
wadc/-2023-09-09 13:05:26
wmifs/-2023-09-09 13:05:27
wicd/-2023-09-09 13:05:27
wicd-kde/-2023-09-09 13:05:27
weightwatcher/-2023-09-09 13:05:27
whichcraft/-2023-09-09 13:05:28
wapua/-2023-09-09 13:05:28
whizzytex/-2023-09-09 13:05:28
webhook/-2023-09-09 13:05:28
wlc/-2023-09-09 13:05:28
wxhexeditor/-2023-09-09 13:05:28
when/-2023-09-09 13:05:28
wxwidgets3.0/-2023-09-09 13:05:28
whitedune/-2023-09-09 13:05:29
w3m-el-snapshot/-2023-09-09 13:05:35
wm2/-2023-09-09 13:05:35
webkitgtk/-2023-09-09 13:05:35
worklog/-2023-09-09 13:05:35
wesnoth-1.12/-2023-09-09 13:05:36
weboob/-2023-09-09 13:05:37
wesnoth-1.13/-2023-09-09 13:05:37
wmcalc/-2023-09-09 13:05:37
worker/-2023-09-09 13:05:37
wavemon/-2023-09-09 13:05:38
writerperfect/-2023-09-09 13:05:38
why/-2023-09-09 13:05:38
wing/-2023-09-09 13:05:38
wcalc/-2023-09-09 13:05:38
writer2latex/-2023-09-09 13:05:38
wordnet/-2023-09-09 13:05:38
wide-dhcpv6/-2023-09-09 13:05:38
ws-butler/-2023-09-09 13:05:38
wayland-utils/-2023-09-15 22:53:20
whitedb/-2023-09-16 10:59:54
wmusic/-2023-09-16 10:59:55
wmsysmon/-2023-09-16 10:59:55
wayland/-2023-09-18 10:58:05
wikidiff2/-2023-09-18 10:58:07
wmnut/-2023-09-18 10:58:14
wlr-randr/-2023-09-18 10:58:14
wmmatrix/-2023-09-18 10:58:14
wmdate/-2023-09-18 10:58:14
wav2cdr/-2023-09-18 10:58:14
wmpinboard/-2023-09-18 10:58:14
wdm/-2023-09-18 10:58:14
wvdial/-2023-09-18 10:58:15
wl-clipboard/-2023-09-18 10:58:53
w3cam/-2023-09-20 05:02:57
wdisplays/-2023-09-20 05:02:57
whichwayisup/-2023-09-20 05:03:05
wslay/-2023-09-20 16:58:59
wdiff/-2023-09-22 22:57:33
whowatch/-2023-09-22 22:57:33
wlsunset/-2023-09-23 16:54:23
whysynth/-2023-09-24 16:53:42
widelands/-2023-09-25 16:56:03
wf-recorder/-2023-09-25 22:55:42
wrapperfactory.app/-2023-09-26 10:57:25
webcamoid/-2023-10-04 11:19:32
wfview/-2023-10-04 11:19:33
wsynth-dssi/-2023-10-04 11:19:33
wlopm/-2023-10-04 11:19:33
wiredpanda/-2023-10-04 11:19:33
wcd/-2023-10-04 11:20:32
wifi-qr/-2023-10-06 05:22:29
webp-pixbuf-loader/-2023-10-11 11:04:42
wacomtablet/-2023-10-13 11:07:40
wxwidgets3.2/-2023-10-20 23:04:17
win-iconv/-2023-10-24 05:30:46
waffle/-2023-10-26 23:11:15
wsclean/-2023-10-31 17:04:54
wireguard-go/-2023-11-03 11:04:39
weechat-scripts/-2023-11-09 05:07:04
wasmedge/-2023-11-16 11:17:57
wlcs/-2023-11-16 17:09:23
willow/-2023-11-28 04:58:04
wmcoincoin/-2023-11-28 17:07:11
weka/-2023-12-09 05:02:35
wings3d/-2023-12-12 11:06:35
wxmplot/-2023-12-14 05:09:40
wildfly-common/-2023-12-15 11:07:46
weechat-matrix/-2023-12-16 05:20:13
wys/-2023-12-19 11:01:25
wmaker/-2023-12-21 17:01:25
webkit2gtk/-2023-12-21 17:01:25
wmhdplop/-2023-12-23 17:01:57
wpewebkit/-2023-12-25 11:00:33
warzone2100/-2024-01-03 04:56:32
wtf-peewee/-2024-01-03 04:56:32
wxpython4.0/-2024-01-04 05:06:29
wmdrawer/-2024-01-04 11:03:09
wike/-2024-01-09 11:03:13
wlrctl/-2024-01-11 11:01:48
webtest/-2024-01-14 11:09:06
webdis/-2024-01-14 17:04:34
wondershaper/-2024-01-15 05:02:52
wmnd/-2024-01-17 17:03:42
wlgreet/-2024-01-18 11:01:14
wmgtemp/-2024-01-19 22:58:50
wmget/-2024-01-19 22:58:50
wmxmms2/-2024-01-20 16:59:58
whipper/-2024-01-26 03:25:00
wavbreaker/-2024-01-26 03:25:23
writeboost/-2024-01-26 03:25:23
wims-lti/-2024-01-26 03:25:29
wfuzz/-2024-01-27 05:01:15
welcome2l/-2024-01-31 04:59:45
wasi-libc/-2024-02-03 05:01:46
whalebuilder/-2024-02-06 22:58:31
weechat/-2024-02-09 04:59:37
wev/-2024-02-10 10:59:48
wvkbd/-2024-02-15 10:59:36
wofi/-2024-02-17 10:59:24
wiggle/-2024-02-20 10:58:47
wabt/-2024-02-22 11:05:04
why3/-2024-02-23 22:58:55
wxmaxima/-2024-02-25 11:01:15
wcwidth/-2024-05-18 00:26:22
weplab/-2024-05-18 00:26:22
waili/-2024-05-18 00:26:22
welle.io/-2024-05-18 00:26:22
wcstools/-2024-05-18 00:26:22
waypipe/-2024-05-18 00:26:22
waitress/-2024-05-18 00:26:22
wayfire-shadows/-2024-05-18 00:26:22
wbxml2/-2024-05-18 00:26:22
wayvnc/-2024-05-18 00:26:22
wannier90/-2024-05-18 00:26:22
wal2json/-2024-05-18 00:26:22
wcslib/-2024-05-18 00:26:22
waylandpp/-2024-05-18 00:26:22
webassets/-2024-05-18 00:26:22
waybar/-2024-05-18 00:26:22
wayfire/-2024-05-18 00:26:22
weborf/-2024-05-18 00:26:22
w3c-markup-validator/-2024-05-18 00:26:22
wavpack/-2024-05-18 00:26:22
watchcatd/-2024-05-18 00:26:22
websockify/-2024-05-18 00:26:22
wcm/-2024-05-18 00:26:22
websocket-client/-2024-05-18 00:26:22
wesnoth-1.18/-2024-05-18 00:26:28
wf-shell/-2024-05-18 00:26:28
wf-config/-2024-05-18 00:26:28
wget2/-2024-05-18 00:26:28
weston/-2024-05-18 00:26:28
wget/-2024-05-18 00:26:28
wl-mirror/-2024-05-18 00:26:29
wise/-2024-05-18 00:26:29
wmrack/-2024-05-18 00:26:29
winff/-2024-05-18 00:26:29
wlogout/-2024-05-18 00:26:29
wireshark/-2024-05-18 00:26:29
wmweather+/-2024-05-18 00:26:29
wmenu/-2024-05-18 00:26:29
wimlib/-2024-05-18 00:26:29
wmpuzzle/-2024-05-18 00:26:29
wizznic/-2024-05-18 00:26:29
wlroots/-2024-05-18 00:26:29
winregfs/-2024-05-18 00:26:29
wmstickynotes/-2024-05-18 00:26:29
wireplumber/-2024-05-18 00:26:29
wiipdf/-2024-05-18 00:26:29
wolfssl/-2024-05-18 00:26:29
wmanager/-2024-05-18 00:26:29
wims/-2024-05-18 00:26:29
wnn6-sdk/-2024-05-18 00:26:29
woof-doom/-2024-05-18 00:26:29
wmwork/-2024-05-18 00:26:29
wireless-tools/-2024-05-18 00:26:29
wily/-2024-05-18 00:26:29
wp2latex/-2024-05-18 00:26:30
wreport/-2024-05-18 00:26:30
wput/-2024-05-18 00:26:30
wsl/-2024-05-18 00:26:30
wraplinux/-2024-05-18 00:26:30
wpa/-2024-05-18 00:26:30
workflow/-2024-05-18 00:26:30
wsjtx/-2024-05-18 00:26:30
workrave/-2024-05-18 00:26:30
wxsqlite3/-2024-05-18 00:26:32
wtdbg2/-2024-05-18 00:26:32
wtforms-alchemy/-2024-05-18 00:26:32
wvstreams/-2024-05-18 00:26:32
wxsvg/-2024-05-18 00:26:32
wv/-2024-05-18 00:26:32
wavesurfer/-2024-05-18 00:28:15
watcher-tempest-plugin/-2024-05-18 00:28:16
watcher-dashboard/-2024-05-18 00:28:17
whois/-2024-05-18 00:28:17
wofi-pass/-2024-05-18 00:28:17
wand/-2024-05-18 00:28:18
wormhole-william/-2024-05-18 00:28:19
wtforms/-2024-05-18 00:28:19
wheel/-2024-05-18 00:28:19
wordpress/-2024-05-18 00:28:20
with-editor/-2024-05-18 00:28:20
wesnoth-1.16/-2024-05-18 00:28:20
weasyprint/-2024-05-18 00:28:20
wayland-protocols/-2024-05-18 00:28:20
watcher/-2024-05-18 00:28:21
wajig/-2024-05-18 00:28:21
w-scan-cpp/-2024-05-18 10:57:52
wmfire/-2024-05-18 10:57:58
wireless-regdb/-2024-05-18 10:57:58
wmweather/-2024-05-18 16:50:11